Weather History for Garrison, ND

Change the Weather History Date:

Monday, November 12, 2012

  Actual Average Record
Temperature  
Mean Temperature 15 °F -  
Max Temperature 24 °F 36 °F 70 °F (1999)
Min Temperature 5 °F 18 °F -2 °F (1998)
Degree Days  
Heating Degree Days 50    
Month to date heating degree days 433  
Moisture  
Dew Point 8 °F    
Average Humidity 75    
Maximum Humidity 81    
Minimum Humidity 69    
Precipitation  
Precipitation 0.00 in - - ()
Month to date precipitation 0.65  
Year to date precipitation 16.06  
Sea Level Pressure  
Sea Level Pressure 30.18 in    
Wind  
Wind Speed 14 mph (WNW)    
Max Wind Speed 25 mph    
Max Gust Speed 32 mph    
Averages and records for this station are not official NWS values.
T = Trace of Precipitation, MM = Missing Value Source: NWS Daily Summary

Daily Weather History Graph

Daily Weather History Graph

Search for Another Location

Airport:

Trip Planner

Search our weather history database for the weather conditions in past years. The results will help you decide how hot, cold, wet, or windy it might be!

Date:

Astronomy

Nov. 12, 2012 Rise Set
Actual Time 7:47 AM CST 5:12 PM CST
Civil Twilight 7:13 AM CST 5:45 PM CST
Nautical Twilight 6:36 AM CST 6:22 PM CST
Astronomical Twilight 6:00 AM CST 6:58 PM CST
Moon 6:11 AM CST (11/12) 4:20 PM CST (11/12)
Length of Visible Light 10h 31m
Length of Day
9h 24m
Waning Crescent, 2% of the Moon is Illuminated
Nov 12
Waning Crescent
Nov 13
New
Nov 20
First Quarter
Nov 28
Full
Dec 6
Last Quarter

Hourly Weather History & Observations

Time (CST) Temp. Windchill Dew Point Humidity Pressure Visibility Wind Dir Wind Speed Gust Speed Precip Events Conditions
12:52 AM 8.1 °F -11.7 °F -0.0 °F 70% 30.08 in - WNW 20.7 mph 32.2 mph N/A   Unknown
1:52 AM 7.0 °F -13.1 °F -0.9 °F 70% 30.10 in - WNW 20.7 mph 27.6 mph N/A   Unknown
2:52 AM 6.1 °F -14.3 °F -0.9 °F 73% 30.12 in - WNW 20.7 mph 29.9 mph N/A   Unknown
3:52 AM 6.1 °F -12.8 °F -2.0 °F 69% 30.12 in - WNW 17.3 mph - N/A   Unknown
4:52 AM 6.1 °F -10.9 °F -0.0 °F 76% 30.14 in - WNW 13.8 mph - N/A   Unknown
5:52 AM 6.1 °F -12.8 °F 1.0 °F 80% 30.16 in - NW 17.3 mph 25.3 mph N/A   Unknown
6:52 AM 6.1 °F -12.2 °F 1.0 °F 80% 30.17 in - WNW 16.1 mph - N/A   Unknown
7:52 AM 7.0 °F -10.4 °F 1.9 °F 80% 30.20 in - WNW 15.0 mph - N/A   Unknown
8:52 AM 8.1 °F -5.3 °F 3.0 °F 80% 30.21 in - WNW 9.2 mph - N/A   Unknown
9:52 AM 10.0 °F -5.9 °F 5.0 °F 80% 30.22 in - West 13.8 mph - N/A   Unknown
10:52 AM 12.9 °F -0.9 °F 6.1 °F 74% 30.24 in - West 11.5 mph - N/A   Unknown
11:52 AM 14.0 °F -0.2 °F 9.0 °F 80% 30.22 in - West 12.7 mph - N/A   Unknown
12:52 PM 17.1 °F 3.6 °F 10.9 °F 77% 30.21 in - West 12.7 mph - N/A   Unknown
1:52 PM 19.9 °F 9.3 °F 14.0 °F 78% 30.19 in - West 9.2 mph - N/A   Unknown
2:52 PM 23.0 °F 13.9 °F 17.1 °F 78% 30.18 in - WSW 8.1 mph - N/A   Unknown
3:52 PM 23.0 °F 15.8 °F 17.1 °F 78% 30.18 in - WSW 5.8 mph - N/A   Unknown
4:52 PM 21.0 °F - 15.1 °F 78% 30.19 in - Calm Calm - N/A   Unknown
5:52 PM 19.9 °F - 14.0 °F 78% 30.19 in - Calm Calm - N/A   Unknown
6:52 PM 16.0 °F 6.3 °F 10.9 °F 81% 30.20 in - West 6.9 mph - N/A   Unknown
7:52 PM 18.0 °F 12.7 °F 12.9 °F 81% 30.19 in - West 3.5 mph - N/A   Unknown
8:52 PM 10.9 °F 0.2 °F 9.0 °F 92% 30.20 in - West 6.9 mph - N/A   Unknown
9:52 PM 17.1 °F 6.6 °F 12.9 °F 84% 30.20 in - WNW 8.1 mph - N/A   Unknown
10:52 PM 14.0 °F - 12.0 °F 92% 30.21 in - Calm Calm - N/A   Unknown
11:52 PM 18.0 °F 6.9 °F 15.1 °F 88% 30.21 in - West 9.2 mph - N/A   Unknown